Location: Six Mile Lake
(44.9000°N, 79.7170°W)
Time: 03:12:53
(UTC-04:00)

UKube-1 - Pass Details

Date: 07 July 2022
Orbit: 608 x 615 km, 98.4° (Epoch: 09 August)

Event Time Altitude Azimuth Distance (km) Brightness Sun altitude
Rises 00:13:51 0° 3° (N) 2,892 ? -20.7°
Reaches altitude 10° 00:16:15 10° 352° (N) 1,981 ? -20.8°
Maximum altitude 00:19:57 29° 293° (WNW) 1,144 ? -21.0°
Enters shadow 00:22:51 14° 240° (WSW) 1,704 ? -21.1°
